Weather History for KTVC - May, 2013

Change the Weather History Date:

Wednesday, May 29, 2013

  Actual Average Record
Temperature  
Mean Temperature 67 °F 58 °F  
Max Temperature 78 °F 70 °F 93 °F (2006)
Min Temperature 55 °F 46 °F 31 °F (1964)
Degree Days  
Heating Degree Days 0 8  
Month to date heating degree days 316 355  
Since 1 July heating degree days 6975 7422  
Cooling Degree Days 2 1  
Month to date cooling degree days 18 12  
Year to date cooling degree days 20 15  
Growing Degree Days 16 (Base 50)    
Moisture  
Dew Point 57 °F    
Average Humidity 79    
Maximum Humidity 100    
Minimum Humidity 58    
Precipitation  
Precipitation 0.00 in 0.09 in 4.18 in (1942)
Month to date precipitation 2.47 2.42  
Year to date precipitation 12.15 11.38  
Sea Level Pressure  
Sea Level Pressure 29.83 in    
Wind  
Wind Speed 4 mph (West)    
Max Wind Speed 13 mph    
Max Gust Speed 17 mph    
Visibility 6 miles    
Events Fog    
T = Trace of Precipitation, MM = Missing Value Source: NWS Daily Summary

Daily Weather History Graph

Daily Weather History Graph

Search for Another Location

Airport or City:

Trip Planner

Search our weather history database for the weather conditions in past years. The results will help you decide how hot, cold, wet, or windy it might be!

Date:

Astronomy

May. 29, 2013 Rise Set
Actual Time 6:01 AM EDT 9:18 PM EDT
Civil Twilight 5:25 AM EDT 9:54 PM EDT
Nautical Twilight 4:39 AM EDT 10:41 PM EDT
Astronomical Twilight 3:41 AM EDT 11:39 PM EDT
Moon 12:34 AM EDT (5/29) 11:06 AM EDT (5/29)
Length of Visible Light 16h 28m
Length of Day
15h 17m
Waning Gibbous, 73% of the Moon is Illuminated
May 29
Waning Gibbous
May 31
Last Quarter
Jun 8
New
Jun 16
First Quarter
Jun 23
Full

Hourly Weather History & Observations

Time (EDT) Temp. Dew Point Humidity Pressure Visibility Wind Dir Wind Speed Gust Speed Precip Events Conditions
12:16 AM 57.2 °F 55.4 °F 94% 29.74 in 3.0 mi Calm Calm - N/A   Overcast
12:53 AM 57.9 °F 55.9 °F 93% 29.75 in 3.0 mi West 3.5 mph - N/A   Overcast
12:59 AM 57.2 °F 57.2 °F 100% 29.75 in 1.8 mi West 3.5 mph - N/A   Overcast
1:28 AM 57.2 °F 57.2 °F 100% 29.74 in 0.8 mi Calm Calm - N/A   Mist
1:38 AM 57.2 °F 57.2 °F 100% 29.73 in 1.2 mi Calm Calm - N/A   Overcast
1:50 AM 57.2 °F 57.2 °F 100% 29.74 in 2.5 mi Calm Calm - N/A   Overcast
1:53 AM 57.9 °F 57.0 °F 97% 29.74 in 2.5 mi Calm Calm - N/A   Overcast
2:13 AM 57.2 °F 57.2 °F 100% 29.75 in 3.0 mi Calm Calm - N/A   Overcast
2:53 AM 59.0 °F 57.9 °F 96% 29.76 in 2.5 mi Calm Calm - N/A   Overcast
3:07 AM 57.2 °F 57.2 °F 100% 29.76 in 0.8 mi Calm Calm - N/A   Overcast
3:19 AM 57.2 °F 57.2 °F 100% 29.76 in 0.2 mi Calm Calm - N/A Fog Fog
3:50 AM 55.4 °F 55.4 °F 100% 29.76 in 0.5 mi Calm Calm - N/A Fog Fog
3:53 AM 55.9 °F 55.9 °F 100% 29.77 in 0.5 mi Calm Calm - N/A Fog Fog
4:03 AM 57.2 °F 55.4 °F 94% 29.77 in 1.5 mi Calm Calm - N/A   Overcast
4:23 AM 57.2 °F 57.2 °F 100% 29.78 in 2.5 mi Calm Calm - N/A   Overcast
4:36 AM 59.0 °F 57.2 °F 94% 29.79 in 5.0 mi West 8.1 mph - N/A   Overcast
4:53 AM 59.0 °F 57.0 °F 93% 29.79 in 8.0 mi West 5.8 mph - N/A   Overcast
5:53 AM 57.0 °F 55.0 °F 93% 29.81 in 9.0 mi West 8.1 mph - N/A   Overcast
6:53 AM 55.9 °F 54.0 °F 93% 29.85 in 8.0 mi WSW 4.6 mph - N/A   Overcast
7:53 AM 55.9 °F 54.0 °F 93% 29.85 in 7.0 mi WSW 4.6 mph - N/A   Overcast
8:53 AM 57.9 °F 55.0 °F 90% 29.86 in 8.0 mi West 4.6 mph - N/A   Overcast
9:24 AM 59.0 °F 55.4 °F 88% 29.87 in 10.0 mi Variable 4.6 mph - N/A   Overcast
9:41 AM 60.8 °F 55.4 °F 82% 29.88 in 10.0 mi West 5.8 mph - N/A   Overcast
9:53 AM 60.1 °F 55.9 °F 86% 29.89 in 10.0 mi WSW 5.8 mph - N/A   Overcast
10:16 AM 60.8 °F 55.4 °F 82% 29.89 in 10.0 mi West 8.1 mph - N/A   Overcast
10:53 AM 61.0 °F 55.9 °F 83% 29.89 in 10.0 mi WNW 6.9 mph - N/A   Overcast
11:53 AM 62.1 °F 57.0 °F 84% 29.89 in 10.0 mi WNW 6.9 mph - N/A   Overcast
12:53 PM 64.9 °F 57.0 °F 75% 29.91 in 10.0 mi WSW 6.9 mph - N/A   Overcast
1:53 PM 66.9 °F 57.9 °F 73% 29.92 in 10.0 mi West 6.9 mph - N/A   Overcast
2:53 PM 66.9 °F 59.0 °F 76% 29.92 in 10.0 mi West 4.6 mph - N/A   Overcast
3:53 PM 70.0 °F 61.0 °F 73% 29.92 in 10.0 mi SW 6.9 mph - N/A   Overcast
4:21 PM 71.6 °F 60.8 °F 69% 29.91 in 10.0 mi SW 10.4 mph - N/A   Mostly Cloudy
4:53 PM 73.0 °F 62.1 °F 68% 29.91 in 10.0 mi Variable 5.8 mph - N/A   Mostly Cloudy
5:53 PM 75.9 °F 63.0 °F 64% 29.90 in 10.0 mi West 9.2 mph - N/A   Scattered Clouds
6:53 PM 78.1 °F 62.1 °F 58% 29.88 in 10.0 mi WSW 5.8 mph - N/A   Scattered Clouds
7:53 PM 66.0 °F 59.0 °F 78% 29.89 in 10.0 mi Calm Calm - N/A   Scattered Clouds
8:53 PM 64.9 °F 59.0 °F 81% 29.88 in 10.0 mi Calm Calm - N/A   Scattered Clouds
9:53 PM 62.1 °F 59.0 °F 90% 29.90 in 10.0 mi Calm Calm - N/A   Scattered Clouds
10:53 PM 61.0 °F 57.9 °F 90% 29.90 in 6.0 mi Calm Calm - N/A   Clear
11:53 PM 61.0 °F 59.0 °F 93% 29.89 in 9.0 mi Calm Calm - N/A   Clear